Regional Weather Roundup
Issued by NWS Sterling, VA

Home | Current Version | Previous Version | Graphics & Text | Print | Product List | Glossary On
Versions: 1 2 3 4 5 6 7 8 9 10 11 12 13 14 15 16 17 18 19 20 21 22 23 24 25 26 27 28 29 30 31 32 33 34 35 36 37 38 39 40 41 42 43 44 45 46 47 48 49 50
000
ASUS41 KLWX 011510
RWRLWX

REGIONAL WEATHER ROUNDUP
NATIONAL WEATHER SERVICE BALTIMORE MD/WASHINGTON DC
1000 AM EST SUN MAR 01 2015

Note: "FAIR" indicates few or no clouds below 12,000 feet
with no significant weather and/or obstructions to visibility.
 TC=TEMPERATURE CELSIUS

 * =Non NWS site. Station does not report precipitation (e.g. rain,
    snow, etc.), thunder, or fog.

DCZ001-MDZ009-015-VAZ040>042-051-053>054-011600-
WASHINGTON METRO

CITY           SKY/WX    TMP DP  RH WIND       PRES   REMARKS
WASHINGTON NAT FRZ RAIN  29  20  69 S8        30.65F WCI  21
DULLES         LGTSLEET  25  18  74 S8        30.60F WCI  16
ANDREWS AFB    FRZ RAIN  27  23  86 S8        30.63F WCI  18
FT BELVOIR     FRZ RAIN  27  23  84 S5        30.64F
QUANTICO       FRZ RAIN  27  22  81 S8        30.66F WCI  19
COLLEGE PARK*  CLOUDY    28  21  74 S6        30.65F
LEESBURG*      LGT SNOW  25  25 100 S8        30.61F WCI  16
MANASSAS*      CLOUDY    27  25  93 S7        30.63F
GAITHERSBURG*  CLOUDY    23  18  80 S7        30.62F

$$

MDZ006>007-011-014-011600-
BALTIMORE METRO

CITY           SKY/WX    TMP DP  RH WIND       PRES   REMARKS
BWI AIRPORT    LGT SNOW  24  20  84 CALM      30.63F VSB 1
MD SCIENCE CTR   N/A      1  32 100 MISG      30.63F
MARTIN STATE   LGT SNOW  27  23  86 SE6       30.66F VSB 3/4
ANNAPOLIS      MIX PCPN  26  21  81 S8        30.65F WCI  18
FORT MEADE*    CLOUDY    27  21  80 S3        30.66F

$$

MDZ012-015-019>023-011600-
MARYLAND EASTERN SHORE

CITY           SKY/WX    TMP DP  RH WIND       PRES   REMARKS
OCEAN CITY     LGT SNOW  29  24  82 N5        30.66F
SALISBURY      LGT SNOW  29  22  75 NE6       30.64F
BAY BRIDGE AP* LGT SNOW  27  21  80 SE8       30.65F WCI  18
CAMBRIDGE*     CLOUDY    28  21  74 E5        30.64F
EASTON*        LGT SNOW  27  23  86 SE5       30.68F

$$

MDZ017>025-011600-
SOUTHERN MARYLAND

CITY           SKY/WX    TMP DP  RH WIND       PRES   REMARKS
PATUXENT RIVER FRZ RAIN  27  20  75 E7        30.64F FOG
ST INIGOES     FRZ RAIN  28  20  71 NE3       30.64S
LEONARDTOWN*   CLOUDY    28  23  80 CALM      30.65F

$$

MDZ003>005-011600-
NORTH CENTRAL MARYLAND

CITY           SKY/WX    TMP DP  RH WIND       PRES   REMARKS
FREDERICK*     LGT SNOW  27  19  74 S8        30.62F WCI  18
HAGERSTOWN APT LGT SNOW  24  19  81 S10       30.53F WCI  14
WESTMINSTER*   NOT AVBL

$$

MDZ501>502-011600-
WESTERN MARYLAND

CITY           SKY/WX    TMP DP  RH WIND       PRES   REMARKS
OAKLAND*       FOG       30 N/A N/A S15       30.33F VSB 3/4 WCI  19
CUMBERLAND*    PTSUNNY   27  21  80 CALM      30.54F

$$

VAZ025>031-011600-
SHENANDOAH VALLEY

CITY           SKY/WX    TMP DP  RH WIND       PRES   REMARKS
WINCHESTER*    LGT SNOW  28  19  69 S7        30.53F
FRONT ROYAL*   CLOUDY    27  21  80 CALM      30.53S
LURAY*         CLOUDY    32  23  69 SW3       30.51F
NEW MARKET*    CLOUDY    28  18  66 CALM      30.51F
STAUNTON*      CLOUDY    30  19  64 SW7       30.52F
WAYNESBORO*    CLOUDY    28  18  67 CALM      30.49F

$$

WVZ021-048>050-054>055-011600-
EASTERN WEST VIRGINIA PANHANDLE

CITY           SKY/WX    TMP DP  RH WIND       PRES   REMARKS
MARTINSBURG    CLOUDY    26  19  74 S6        30.54F
PETERSBURG*    NOT AVBL

$$

VAZ036>039-050-011600-
CENTRAL FOOTHILLS

CITY           SKY/WX    TMP DP  RH WIND       PRES   REMARKS
CHARLOTTESVILL CLOUDY    27  17  66 CALM      30.58F
CULPEPER*      MIX PCPN  28  25  86 S5        30.61F
ORANGE*        MIX PCPN  28  23  80 CALM      30.61F
GORDONSVILLE*  CLOUDY    26  18  72 CALM      30.59F
WARRENTON*     MIX PCPN  29  28  95 S6        30.60F

$$

VAZ055>057-011600-
NORTH AND CENTRAL PIEDMONT

CITY           SKY/WX    TMP DP  RH WIND       PRES   REMARKS
FREDERICKSBRG* MIX PCPN  28  26  90 SE3       30.63F
STAFFORD*      MIX PCPN  26  26  98 CALM      30.67F

$$

NCZ024-NYZ072-PAZ021-071-VAZ022-071-011600-
OTHER REGIONAL OBSERVATIONS

CITY           SKY/WX    TMP DP  RH WIND       PRES   REMARKS
NEW YORK CITY  CLOUDY    30   5  34 S3        30.63F
PHILADELPHIA   CLOUDY    27  10  49 S13       30.64F WCI  16
PITTSBURGH     LGT SNOW  33  30  88 SW9       30.35F FOG     WCI  25
ROANOKE        CLOUDY    29  14  53 E3        30.56F
RICHMOND       FRZ DRZL  29  20  69 CALM      30.62F
RALEIGH        LGT RAIN  32  29  88 CALM      30.59R VSB 1

$$

ANZ530>537-011600-
MARINE OBSERVATIONS

STATION/POSITION TIME  TEMP    WIND        PRES
                       AIR SEA DIR/SP/G
                 (UTC) (F)     (DEG/KT/KT) (MB)
THOMAS PT LIGHT  1500   25 31  170/  9/ 10 1039.0F
BALT KEY BRIDGE  1400   25     140/  4/  5 1038.3S
COVE POINT       1400   26     160/  6/  8 1038.2F
LEWISETTA        1400   28 32              1037.4F
SOLOMONS ISLAND  1400      32                N/A

$$



USA.gov is the U.S. government's official web portal to all federal, state and local government web resources and services.